Location: ActonStarParty
(42.4766°N, 71.4538°W)
Time: 08:22:28
(UTC-04:00)

ATLAS CENTAUR R/B - Pass Details

Date: 19 April 2018
Orbit: 460 x 692 km, 64.7° (Epoch: 10 August)

Event Time Altitude Azimuth Distance (km) Brightness Sun altitude
Rises 22:24:46 0° 252° (WSW) 2,503 4.9 -27.2°
Reaches altitude 10° 22:27:21 10° 272° (W) 1,654 4.2 -27.5°
Maximum altitude 22:29:59 18° 318° (NW) 1,253 3.9 -27.8°
Drops below altitude 10° 22:32:43 10° 4° (N) 1,730 4.4 -28.1°
Sets 22:35:30 0° 23° (NNE) 2,667 5.2 -28.5°
